Dawson, IA

10:32 PM CST on February 07, 2016 (GMT -0600)
Perry Municipal

Weather History for KPRO - April, 2013

Change the Weather History Date:

Thursday, April 18, 2013

  Actual Average (KAMW) Record (KAMW)
Temperature  
Mean Temperature 36 °F 50 °F  
Max Temperature 40 °F 62 °F - ()
Min Temperature 33 °F 39 °F - ()
Degree Days  
Heating Degree Days 28 15  
Month to date heating degree days 319  
Since 1 July heating degree days 6475  
Cooling Degree Days 0 0  
Month to date cooling degree days 0  
Year to date cooling degree days 0  
Moisture  
Dew Point 34 °F    
Average Humidity 89    
Maximum Humidity 94    
Minimum Humidity 81    
Precipitation  
Precipitation 0.23 in 0.12 in - ()
Month to date precipitation 1.73  
Sea Level Pressure  
Sea Level Pressure 29.65 in    
Wind  
Wind Speed 17 mph (NNW)    
Max Wind Speed 26 mph    
Max Gust Speed 34 mph    
Visibility 6 miles    
Events Rain    
T = Trace of Precipitation, MM = Missing Value Source: NWS Daily Summary

Daily Weather History Graph

Daily Weather History Graph

Search for Another Location

Airport or City:

Trip Planner

Search our weather history database for the weather conditions in past years. The results will help you decide how hot, cold, wet, or windy it might be!

Date:

Astronomy

Apr. 18, 2013 Rise Set
Actual Time 6:31 AM CDT 8:01 PM CDT
Civil Twilight 6:02 AM CDT 8:30 PM CDT
Nautical Twilight 5:27 AM CDT 9:05 PM CDT
Astronomical Twilight 4:49 AM CDT 9:43 PM CDT
Moon 12:42 PM CDT (4/18) 2:17 AM CDT (4/18)
Length of Visible Light 14h 28m
Length of Day
13h 29m
First Quarter, 52% of the Moon is Illuminated
Apr 18
First Quarter
Apr 25
Full
May 2
Last Quarter
May 9
New
May 17
First Quarter

Hourly Weather History & Observations

Time (CDT) Temp. Windchill Dew Point Humidity Pressure Visibility Wind Dir Wind Speed Gust Speed Precip Events Conditions
12:15 AM 40.6 °F 32.3 °F 38.5 °F 92% 29.72 in 5.0 mi North 16.1 mph - N/A   Overcast
12:35 AM 40.6 °F 33.0 °F 38.5 °F 92% 29.70 in 5.0 mi North 13.8 mph - N/A   Overcast
12:55 AM 40.5 °F 32.8 °F 38.5 °F 93% 29.70 in 5.0 mi North 13.8 mph - N/A   Overcast
1:15 AM 40.5 °F 34.6 °F 38.5 °F 93% 29.74 in 5.0 mi North 9.2 mph - N/A   Overcast
1:35 AM 40.3 °F 35.5 °F 38.3 °F 93% 29.78 in 5.0 mi NW 6.9 mph - 0.01 in Rain Heavy Rain
1:55 AM 40.1 °F 31.6 °F 37.9 °F 92% 29.74 in 3.0 mi NNW 16.1 mph - 0.10 in Rain Heavy Rain
2:15 AM 39.4 °F 30.1 °F 37.6 °F 93% 29.70 in 5.0 mi North 18.4 mph 23.0 mph 0.02 in Rain Rain
2:35 AM 39.2 °F 30.5 °F 37.4 °F 93% 29.69 in 10.0 mi North 16.1 mph - 0.03 in Rain Light Rain
2:55 AM 39.2 °F 29.8 °F 37.0 °F 92% 29.68 in 10.0 mi North 18.4 mph 24.2 mph 0.03 in Rain Light Rain
3:15 AM 38.8 °F 30.8 °F 36.7 °F 92% 29.69 in 10.0 mi NNW 13.8 mph 19.6 mph N/A   Light Drizzle
3:35 AM 38.3 °F 28.7 °F 36.3 °F 93% 29.69 in 2.0 mi NNW 18.4 mph - 0.04 in Rain Light Rain
3:55 AM 37.6 °F 26.9 °F 35.6 °F 93% 29.68 in 5.0 mi North 21.9 mph 26.5 mph 0.06 in Rain Light Rain
4:35 AM 36.9 °F 26.2 °F 34.9 °F 93% 29.69 in 7.0 mi North 20.7 mph 24.2 mph 0.02 in Rain Light Rain
5:23 AM 37.4 °F 26.6 °F 35.6 °F 93% 29.59 in 10.0 mi NNE 21.9 mph 26.5 mph N/A   Overcast
5:35 AM 36.5 °F 27.0 °F 34.5 °F 93% 29.64 in 7.0 mi North 16.1 mph 23.0 mph 0.01 in Rain Light Rain
5:55 AM 36.7 °F 27.6 °F 34.3 °F 91% 29.64 in 10.0 mi North 15.0 mph - 0.01 in   Overcast
6:15 AM 36.7 °F 28.4 °F 34.5 °F 92% 29.62 in 10.0 mi NNE 12.7 mph 17.3 mph N/A   Overcast
6:35 AM 37.0 °F 29.3 °F 34.7 °F 91% 29.63 in 10.0 mi North 11.5 mph - N/A   Overcast
6:55 AM 37.0 °F 29.3 °F 34.7 °F 91% 29.62 in 10.0 mi North 11.5 mph - N/A   Overcast
7:15 AM 37.0 °F 29.3 °F 34.7 °F 91% 29.63 in 10.0 mi North 11.5 mph - N/A   Overcast
7:35 AM 36.7 °F 28.9 °F 34.7 °F 93% 29.62 in 7.0 mi North 11.5 mph - N/A   Light Drizzle
7:55 AM 36.7 °F 31.2 °F 34.9 °F 93% 29.64 in 3.0 mi North 6.9 mph - N/A   Light Drizzle
8:15 AM 36.7 °F 28.9 °F 35.1 °F 94% 29.63 in 2.0 mi North 11.5 mph - N/A   Drizzle
8:35 AM 36.7 °F 29.4 °F 35.1 °F 94% 29.62 in 2.5 mi North 10.4 mph - 0.01 in   Drizzle
8:55 AM 36.7 °F 28.9 °F 35.1 °F 94% 29.62 in 1.8 mi NNW 11.5 mph - 0.01 in Rain Rain
9:15 AM 36.5 °F 27.8 °F 34.9 °F 94% 29.60 in 1.5 mi NNW 13.8 mph - N/A Rain Rain
9:35 AM 36.5 °F 26.7 °F 34.9 °F 94% 29.59 in 1.8 mi NNW 17.3 mph - N/A Rain Rain
9:55 AM 36.5 °F 26.7 °F 34.9 °F 94% 29.58 in 1.8 mi NNW 17.3 mph - N/A Rain Light Rain
10:35 AM 36.3 °F 26.4 °F 34.2 °F 92% 29.60 in 1.2 mi NNW 17.3 mph 28.8 mph N/A Rain Light Rain
10:55 AM 36.7 °F 26.0 °F 34.7 °F 93% 29.60 in 1.5 mi NNW 20.7 mph 26.5 mph N/A Rain Light Rain
11:15 AM 36.5 °F 24.4 °F 34.5 °F 93% 29.60 in 1.8 mi NNW 26.5 mph 32.2 mph N/A Rain Light Rain
11:35 AM 36.1 °F 25.2 °F 33.8 °F 91% 29.59 in 1.2 mi NNW 20.7 mph 32.2 mph N/A Rain Light Rain
11:55 AM 35.8 °F 24.2 °F 33.8 °F 92% 29.60 in 1.8 mi NNW 23.0 mph 28.8 mph N/A Rain Light Rain
12:15 PM 36.3 °F 25.5 °F 34.0 °F 91% 29.59 in 1.8 mi NNW 20.7 mph 27.6 mph N/A Rain Light Rain
12:35 PM 36.0 °F 26.0 °F 33.8 °F 92% 29.59 in 1.5 mi NNW 17.3 mph 27.6 mph N/A Rain Rain
12:55 PM 36.1 °F 25.2 °F 33.8 °F 91% 29.59 in 2.5 mi NNW 20.7 mph - N/A   Overcast
1:15 PM 35.6 °F 23.4 °F 33.1 °F 91% 29.59 in 3.0 mi NNW 25.3 mph 32.2 mph N/A   Overcast
1:35 PM 35.4 °F 23.7 °F 32.9 °F 91% 29.60 in 2.0 mi NNW 23.0 mph 28.8 mph N/A   Light Drizzle
1:55 PM 35.4 °F 24.6 °F 32.9 °F 91% 29.61 in 1.8 mi NW 19.6 mph 31.1 mph N/A   Light Drizzle
2:15 PM 36.1 °F 25.9 °F 33.6 °F 91% 29.62 in 3.0 mi NNW 18.4 mph 31.1 mph N/A Rain Light Rain
2:35 PM 36.1 °F 26.2 °F 33.4 °F 90% 29.62 in 5.0 mi NW 17.3 mph 29.9 mph N/A Rain Light Rain
2:55 PM 36.3 °F 24.7 °F 33.4 °F 89% 29.61 in 3.0 mi NNW 24.2 mph 29.9 mph N/A Rain Light Rain
3:15 PM 37.4 °F 26.1 °F 33.8 °F 87% 29.62 in 7.0 mi NW 24.2 mph 32.2 mph N/A Rain Light Rain
3:35 PM 36.7 °F 26.0 °F 32.4 °F 84% 29.63 in 10.0 mi NW 20.7 mph 25.3 mph N/A   Light Drizzle
3:55 PM 36.1 °F 25.5 °F 32.0 °F 85% 29.63 in 10.0 mi NW 19.6 mph 24.2 mph N/A   Overcast
4:15 PM 36.1 °F 26.2 °F 32.0 °F 85% 29.63 in 10.0 mi WNW 17.3 mph 25.3 mph N/A   Overcast
4:35 PM 36.0 °F 25.6 °F 31.5 °F 84% 29.64 in 10.0 mi NW 18.4 mph 27.6 mph N/A   Overcast
4:55 PM 36.1 °F 25.5 °F 30.9 °F 81% 29.64 in 10.0 mi NW 19.6 mph 26.5 mph N/A   Overcast
5:15 PM 36.3 °F 25.8 °F 31.3 °F 82% 29.65 in 10.0 mi WNW 19.6 mph 26.5 mph N/A   Overcast
5:35 PM 36.1 °F 26.2 °F 31.6 °F 84% 29.66 in 10.0 mi WNW 17.3 mph 29.9 mph N/A   Overcast
5:55 PM 36.0 °F 24.7 °F 31.5 °F 84% 29.66 in 10.0 mi WNW 21.9 mph 26.5 mph N/A   Overcast
6:15 PM 36.0 °F 25.0 °F 30.9 °F 82% 29.67 in 10.0 mi NW 20.7 mph 32.2 mph N/A   Overcast
6:35 PM 36.0 °F 25.6 °F 30.7 °F 81% 29.68 in 10.0 mi WNW 18.4 mph 26.5 mph N/A   Overcast
6:55 PM 35.6 °F 24.5 °F 31.1 °F 84% 29.68 in 10.0 mi WNW 20.7 mph 25.3 mph N/A   Overcast
7:15 PM 35.6 °F 24.2 °F 31.1 °F 84% 29.69 in 10.0 mi WNW 21.9 mph 34.5 mph N/A   Overcast
7:35 PM 35.2 °F 23.5 °F 31.1 °F 85% 29.69 in 10.0 mi WNW 23.0 mph 28.8 mph N/A   Overcast
7:55 PM 35.1 °F 24.5 °F 31.1 °F 85% 29.70 in 10.0 mi WNW 18.4 mph 31.1 mph N/A   Overcast
8:15 PM 34.7 °F 22.8 °F 30.6 °F 85% 29.72 in 10.0 mi WNW 23.0 mph 34.5 mph N/A   Overcast
8:35 PM 34.7 °F 23.1 °F 30.6 °F 85% 29.72 in 10.0 mi WNW 21.9 mph 28.8 mph N/A   Overcast
10:35 PM 33.8 °F 21.6 °F 29.7 °F 85% 29.74 in 10.0 mi WNW 23.0 mph 28.8 mph N/A   Overcast
10:55 PM 33.6 °F 22.2 °F 29.7 °F 85% 29.74 in 10.0 mi WNW 19.6 mph 27.6 mph N/A   Overcast
11:15 PM 33.6 °F 22.6 °F 29.5 °F 85% 29.73 in 10.0 mi WNW 18.4 mph 28.8 mph N/A   Overcast
11:35 PM 33.4 °F 21.4 °F 29.3 °F 85% 29.73 in 10.0 mi WNW 21.9 mph 26.5 mph N/A   Overcast
11:55 PM 33.4 °F 21.4 °F 29.5 °F 85% 29.73 in 10.0 mi WNW 21.9 mph 31.1 mph N/A   Overcast